PROBA-2

Last updated on July 6, 2021, 3:44 p.m. UTC

1 36037U 09059B   21187.09136586  .00000025  00000-0  16736-4 0  9993
2 36037  98.2237  15.2532 0014705  96.3508 263.9363 14.53155982619043
UTC
Height (km)
Latitude
Longitude
Inclination
Orbital Period
UTC large
Height (km)
Speed (km/s)
/
Latitude / Longitude
Inclination (degrees)
Orbital Period (minutes)
Azimuth
Elevation
Range (km)
Doppler Factor
iOS Compass Heading
iOS Angle